User: anonymous   Login
Location: Goheenville
(40.9070°N, 79.3720°W)
Time: 22:05:06
(UTC-04:00)
Language:

Cosmos 1633 - Orbit

View from above orbital plane
View from above orbital plane
View from above satellite
View from above satellite

Ground track
Ground track

The orbit data is extracted from the following two-line orbital elements,

1 15592U 85020A   16148.07860787  .00002171  00000-0  80550-4 0  9993
2 15592  82.5377 345.7163 0015967 100.5120 259.7919 15.26915307705342
Epoch (UTC): 27 May 2016 01:53:11
Eccentricity: 0.0015967
inclination: 82.5377°
perigee height: 474 km
apogee height: 496 km
right ascension of ascending node: 345.7163°
argument of perigee: 100.5120°
revolutions per day: 15.26915307
mean anomaly at epoch: 259.7919°
orbit number at epoch: 70534

The dashed part of the orbit path shows where the satellite is in the earth's shadow,  

DLR